Flag for Gambia Weather past 2 weeks in Banjul, Gambia

Now
75 °F

Light rain. Passing clouds.


Feels Like: 73 °F
Forecast: 80 / 85 °F
Wind: 10 mph from Southwest

Location: Banjul / Yundum

Current Time: Jul 29, 2015 at 3:33:21 AM

Latest Report: Jul 29, 2015 at 3:00 AM


Visibility: 6 mi

Pressure: 29.86 "Hg

Humidity: 100%

Dew point: 75 °F

Location of BanjulLocation

Historic Weather in Banjul — Graph

°F

Banjul temperature yesterday

Maximum temperature yesterday: 88 °F (at 1:00 PM)
Minimum temperature yesterday: 77 °F (at 3:00 AM)
Average temperature yesterday: 80 °F

Past Weeks' High & Low Weather Summary

 TemperatureHumidityPressure
High91 °F (Jul 16, 3:00 PM)100% (Jul 19, 10:00 AM)32.90 "Hg (Jul 19, 10:00 AM)
Low70 °F (Jul 19, 7:00 AM)49% (Jul 24, 12:00 PM)29.77 "Hg (Jul 16, 5:00 PM)
Average82 °F80%29.89 "Hg
* Reported Jul 14 2:00 AM — Jul 29 2:00 AM, Banjul, Weather by CustomWeather, © 2015

Note: Actual official high and low records may vary slightly from our data, if they occured in-between our weather recording intervals... More about our weather records

Advertising

Banjul weather history for previous 24 hours

 ConditionsComfort  
Time TempWeatherWind HumidityBarometerVisibility
2:00 AM
Wed, Jul 29
77 °FPartly cloudy.7 mph94%29.89 "HgN/A
1:00 AM77 °FPartly cloudy.12 mph94%29.89 "HgN/A
12:00 AM77 °FPartly cloudy.8 mph94%29.92 "HgN/A
11:00 PM
Tue, Jul 28
77 °FPartly cloudy.6 mph94%29.92 "HgN/A
10:00 PM79 °FPartly cloudy.10 mph89%29.92 "HgN/A
9:00 PM79 °FPassing clouds.No wind94%29.92 "HgN/A
8:00 PM79 °FPassing clouds.3 mph89%29.89 "HgN/A
7:00 PM79 °FPartly sunny.13 mph94%29.83 "HgN/A
6:00 PM79 °FLight rain. Partly sunny.12 mph94%29.83 "Hg6 mi
5:35 PM79 °FThunderstorms. Partly sunny.10 mph94%29.86 "Hg6 mi
5:00 PM79 °FThunderstorms. Partly sunny.14 mph94%29.86 "Hg6 mi
4:00 PM86 °FThunderstorms. Broken clouds.No wind75%29.83 "HgN/A
3:00 PM86 °FThunderstorms. Broken clouds.6 mph79%29.83 "HgN/A
2:00 PM82 °FThunderstorms. Broken clouds.14 mph79%29.83 "HgN/A
1:23 PM88 °FThunderstorms. Partly sunny.No wind66%29.83 "HgN/A
1:00 PM88 °FBroken clouds.No wind66%N/AN/A
12:00 PM84 °FPartly sunny.No wind74%29.83 "HgN/A
11:00 AM82 °FBroken clouds.No wind79%29.86 "HgN/A
10:00 AM79 °FBroken clouds.No wind89%29.86 "HgN/A
9:00 AM77 °FBroken clouds.No wind94%29.86 "HgN/A
8:00 AM77 °FBroken clouds.12 mph94%29.86 "HgN/A
7:00 AM77 °FBroken clouds.No wind100%29.86 "HgN/A
6:00 AM77 °FWarm.No wind100%29.89 "HgN/A
5:00 AM77 °FWarm.No wind100%29.86 "HgN/A
4:00 AM77 °FPartly cloudy.No wind100%29.83 "HgN/A
3:00 AM77 °FPartly cloudy.No wind100%29.80 "HgN/A
Weather by CustomWeather, © 2015

See weather overviewHow to use our weather pages